TimeEDT,TemperatureF,Dew PointF,Humidity,Sea Level PressureIn,VisibilityMPH,Wind Direction,Wind SpeedMPH,Gust SpeedMPH,PrecipitationIn,Events,Conditions,WindDirDegrees,DateUTC
12:56 AM,66.6,64.6,93,30.02,11.0,NNW,1.2,-,N/A,,Clear,340,2013-09-09 04:56:00
1:56 AM,66.2,63.3,90,30.02,12.0,NNW,2.3,-,N/A,,Clear,340,2013-09-09 05:56:00
2:56 AM,64.0,62.1,93,30.03,12.0,NNW,3.5,-,N/A,,Clear,330,2013-09-09 06:56:00
3:56 AM,63.7,61.5,93,30.03,12.0,WNW,1.2,-,N/A,,Clear,290,2013-09-09 07:56:00
4:56 AM,62.8,61.5,96,30.04,9.0,Calm,Calm,-,N/A,,Clear,0,2013-09-09 08:56:00
5:56 AM,62.1,60.4,94,30.06,9.0,NNW,3.5,-,N/A,,Clear,340,2013-09-09 09:56:00
6:56 AM,61.3,60.1,96,30.07,6.0,North,2.3,-,N/A,,Clear,350,2013-09-09 10:56:00
7:56 AM,64.8,62.2,92,30.09,12.0,NW,1.2,-,N/A,,Clear,320,2013-09-09 11:56:00
8:56 AM,74.1,64.4,72,30.10,12.0,NNE,5.8,-,N/A,,Clear,30,2013-09-09 12:56:00
9:56 AM,81.9,63.3,53,30.12,12.0,East,6.9,-,N/A,,Clear,80,2013-09-09 13:56:00
10:56 AM,85.1,62.8,47,30.13,12.0,ESE,9.2,-,N/A,,Clear,120,2013-09-09 14:56:00
11:56 AM,87.3,61.9,42,30.13,12.0,Variable,6.9,15.0,N/A,,Clear,0,2013-09-09 15:56:00
12:56 PM,88.9,59.9,38,30.13,12.0,East,8.1,-,N/A,,Clear,80,2013-09-09 16:56:00
1:56 PM,89.2,60.3,38,30.12,12.0,SSE,1.2,15.0,N/A,,Partly Cloudy,160,2013-09-09 17:56:00
2:56 PM,90.0,60.8,37,30.11,12.0,SSE,3.5,-,N/A,,Clear,150,2013-09-09 18:56:00
3:56 PM,91.4,60.4,35,30.10,12.0,SE,8.1,-,N/A,,Partly Cloudy,130,2013-09-09 19:56:00
4:56 PM,88.7,63.5,43,30.10,12.0,SE,6.9,15.0,N/A,,Clear,140,2013-09-09 20:56:00
5:56 PM,88.5,62.4,42,30.10,12.0,ESE,4.6,-,N/A,,Clear,110,2013-09-09 21:56:00
6:56 PM,85.6,64.6,49,30.10,12.0,East,4.6,-,N/A,,Clear,100,2013-09-09 22:56:00
7:56 PM,80.4,66.0,61,30.11,12.0,ESE,3.5,-,N/A,,Clear,110,2013-09-09 23:56:00
8:56 PM,76.1,67.3,74,30.13,12.0,South,9.2,-,N/A,,Clear,170,2013-09-10 00:56:00
9:56 PM,77.4,68.4,74,30.14,12.0,South,6.9,-,N/A,,Clear,170,2013-09-10 01:56:00
10:56 PM,74.5,68.5,82,30.16,12.0,SSE,3.5,-,N/A,,Clear,150,2013-09-10 02:56:00
11:56 PM,73.2,68.4,85,30.18,12.0,SE,4.6,-,N/A,,Clear,140,2013-09-10 03:56:00